Lambertville, MI

8:11 AM EST on February 10, 2016 (GMT -0500)
Toledo Suburban Airport

Weather History for KDUH - October, 2012

Change the Weather History Date:

Thursday, October 25, 2012

  Actual Average (KTOL) Record (KTOL)
Temperature  
Mean Temperature 68 °F 49 °F  
Max Temperature 78 °F 59 °F 81 °F (1963)
Min Temperature 57 °F 39 °F 21 °F (1960)
Degree Days  
Heating Degree Days 0 16  
Month to date heating degree days 302  
Since 1 July heating degree days 426  
Cooling Degree Days 2 0  
Month to date cooling degree days 8  
Year to date cooling degree days 792  
Growing Degree Days 18 (Base 50)    
Moisture  
Dew Point 51 °F    
Average Humidity 56    
Maximum Humidity 77    
Minimum Humidity 37    
Precipitation  
Precipitation 0.00 in 0.08 in 1.79 in (1991)
Month to date precipitation 2.11  
Year to date precipitation 28.21  
Snow  
Snow 0.00 in 0.00 in - ()
Month to date snowfall 0.1  
Since 1 July snowfall 0.1  
Since 1 September snowfall 0.1  
Snow Depth -    
Sea Level Pressure  
Sea Level Pressure 29.95 in    
Wind  
Wind Speed 7 mph (South)    
Max Wind Speed 18 mph    
Max Gust Speed 26 mph    
Visibility 10 miles    
Events      
T = Trace of Precipitation, MM = Missing Value Source: NWS Daily Summary

Daily Weather History Graph

Daily Weather History Graph

Search for Another Location

Airport or City:

Trip Planner

Search our weather history database for the weather conditions in past years. The results will help you decide how hot, cold, wet, or windy it might be!

Date:

Astronomy

Oct. 25, 2012 Rise Set
Actual Time 7:58 AM EDT 6:37 PM EDT
Civil Twilight 7:30 AM EDT 7:06 PM EDT
Nautical Twilight 6:57 AM EDT 7:38 PM EDT
Astronomical Twilight 6:25 AM EDT 8:10 PM EDT
Moon 4:25 PM EDT (10/25) 3:51 AM EDT (10/25)
Length of Visible Light 11h 35m
Length of Day
10h 38m
Waxing Gibbous, 84% of the Moon is Illuminated
Oct 25
Waxing Gibbous
Oct 29
Full
Nov 6
Last Quarter
Nov 13
New
Nov 20
First Quarter

Hourly Weather History & Observations

Time (EDT) Temp. Dew Point Humidity Pressure Visibility Wind Dir Wind Speed Gust Speed Precip Events Conditions
12:15 AM 66.7 °F 51.8 °F 59% 30.00 in 10.0 mi SSW 5.8 mph - N/A   Clear
12:35 AM 66.4 °F 51.8 °F 59% 30.00 in 10.0 mi SSW 5.8 mph - N/A   Clear
12:55 AM 66.2 °F 51.8 °F 60% 30.00 in 10.0 mi SSW 5.8 mph - N/A   Clear
1:35 AM 65.1 °F 51.8 °F 62% 30.00 in 10.0 mi SSW 5.8 mph - N/A   Clear
1:55 AM 64.4 °F 51.8 °F 64% 30.00 in 10.0 mi SSW 4.6 mph - N/A   Clear
2:15 AM 64.2 °F 51.6 °F 64% 30.00 in 10.0 mi South 4.6 mph - N/A   Clear
2:35 AM 63.5 °F 51.4 °F 65% 30.00 in 10.0 mi South 4.6 mph - N/A   Clear
2:55 AM 62.8 °F 51.4 °F 66% 29.99 in 10.0 mi South 4.6 mph - N/A   Clear
3:35 AM 63.0 °F 51.4 °F 66% 29.99 in 10.0 mi SSW 5.8 mph - N/A   Clear
3:55 AM 62.6 °F 51.3 °F 66% 29.98 in 10.0 mi SSW 5.8 mph - N/A   Clear
4:15 AM 61.9 °F 51.3 °F 68% 29.99 in 10.0 mi South 5.8 mph - N/A   Clear
4:35 AM 61.0 °F 51.3 °F 70% 29.99 in 10.0 mi South 4.6 mph - N/A   Clear
4:55 AM 60.3 °F 51.4 °F 73% 29.98 in 10.0 mi South 4.6 mph - N/A   Clear
5:15 AM 59.9 °F 51.4 °F 74% 29.98 in 10.0 mi South 4.6 mph - N/A   Clear
5:35 AM 59.2 °F 51.4 °F 75% 29.99 in 10.0 mi South 3.5 mph - N/A   Clear
5:55 AM 58.8 °F 51.3 °F 76% 29.99 in 10.0 mi South 3.5 mph - N/A   Clear
6:15 AM 59.0 °F 51.3 °F 75% 30.00 in 10.0 mi South 5.8 mph - N/A   Clear
6:35 AM 58.5 °F 51.3 °F 77% 30.00 in 10.0 mi South 4.6 mph - N/A   Clear
6:55 AM 58.1 °F 50.9 °F 77% 30.00 in 10.0 mi South 4.6 mph - N/A   Clear
7:15 AM 58.1 °F 51.1 °F 77% 30.00 in 10.0 mi SSE 4.6 mph - N/A   Clear
7:55 AM 57.9 °F 50.7 °F 77% 30.01 in 10.0 mi South 4.6 mph - N/A   Clear
8:15 AM 58.1 °F 50.5 °F 76% 30.01 in 10.0 mi South 4.6 mph - N/A   Clear
8:35 AM 59.0 °F 50.5 °F 73% 30.01 in 10.0 mi South 5.8 mph - N/A   Clear
8:55 AM 60.4 °F 50.5 °F 70% 30.01 in 10.0 mi South 5.8 mph - N/A   Clear
9:35 AM 63.7 °F 50.9 °F 63% 30.01 in 10.0 mi South 5.8 mph - N/A   Clear
9:55 AM 64.9 °F 50.7 °F 60% 30.02 in 10.0 mi South 8.1 mph - N/A   Clear
10:15 AM 66.2 °F 50.7 °F 57% 30.01 in 10.0 mi South 8.1 mph - N/A   Clear
10:55 AM 68.9 °F 51.3 °F 53% 30.01 in 10.0 mi South 10.4 mph - N/A   Clear
11:15 AM 70.7 °F 52.0 °F 51% 30.00 in 10.0 mi South 8.1 mph - N/A   Clear
11:35 AM 72.3 °F 52.5 °F 50% 30.00 in 10.0 mi South 10.4 mph - N/A   Clear
11:55 AM 73.6 °F 53.4 °F 49% 29.99 in 10.0 mi SSW 8.1 mph 16.1 mph N/A   Clear
12:15 PM 74.3 °F 53.6 °F 48% 29.98 in 10.0 mi SSW 8.1 mph 17.3 mph N/A   Clear
12:35 PM 75.4 °F 54.3 °F 48% 29.98 in 10.0 mi SSW 10.4 mph 16.1 mph N/A   Clear
1:15 PM 76.8 °F 54.0 °F 45% 29.96 in 10.0 mi SSW 13.8 mph 21.9 mph N/A   Clear
1:35 PM 77.2 °F 53.4 °F 44% 29.95 in 10.0 mi South 15.0 mph 23.0 mph N/A   Clear
1:55 PM 77.2 °F 53.4 °F 44% 29.94 in 10.0 mi SSW 13.8 mph 21.9 mph N/A   Clear
2:15 PM 77.5 °F 53.6 °F 43% 29.93 in 10.0 mi South 12.7 mph 18.4 mph N/A   Clear
2:35 PM 77.9 °F 52.2 °F 41% 29.93 in 10.0 mi SSW 16.1 mph 23.0 mph N/A   Clear
2:55 PM 77.9 °F 51.3 °F 39% 29.92 in 10.0 mi South 15.0 mph 23.0 mph N/A   Clear
3:15 PM 77.9 °F 51.6 °F 40% 29.91 in 10.0 mi South 10.4 mph 19.6 mph N/A   Clear
3:35 PM 77.9 °F 50.9 °F 39% 29.91 in 7.0 mi SSW 13.8 mph 21.9 mph N/A   Clear
4:15 PM 78.1 °F 50.0 °F 37% 29.90 in 10.0 mi SSW 17.3 mph 23.0 mph N/A   Clear
4:35 PM 77.9 °F 49.3 °F 37% 29.89 in 10.0 mi South 15.0 mph 26.5 mph N/A   Clear
4:55 PM 77.7 °F 49.3 °F 37% 29.89 in 10.0 mi South 18.4 mph 25.3 mph N/A   Clear
5:15 PM 77.4 °F 49.5 °F 37% 29.88 in 10.0 mi South 6.9 mph 20.7 mph N/A   Clear
5:35 PM 76.5 °F 49.3 °F 38% 29.88 in 10.0 mi South 9.2 mph 24.2 mph N/A   Clear
5:55 PM 75.6 °F 49.3 °F 39% 29.88 in 10.0 mi SSW 10.4 mph 20.7 mph N/A   Clear
6:15 PM 74.8 °F 50.0 °F 42% 29.89 in 10.0 mi South 10.4 mph 18.4 mph N/A   Clear
6:35 PM 73.9 °F 50.4 °F 43% 29.89 in 10.0 mi South 9.2 mph 17.3 mph N/A   Clear
6:55 PM 73.4 °F 50.5 °F 45% 29.89 in 10.0 mi South 11.5 mph 16.1 mph N/A   Clear
7:15 PM 73.4 °F 50.9 °F 45% 29.90 in 10.0 mi South 9.2 mph 17.3 mph N/A   Clear
7:35 PM 72.5 °F 51.4 °F 47% 29.90 in 10.0 mi South 8.1 mph - N/A   Clear
7:55 PM 72.5 °F 51.8 °F 48% 29.89 in 10.0 mi South 10.4 mph 17.3 mph N/A   Clear
8:15 PM 72.1 °F 51.8 °F 49% 29.89 in 10.0 mi South 9.2 mph 19.6 mph N/A   Clear
8:35 PM 72.5 °F 52.0 °F 48% 29.89 in 10.0 mi South 9.2 mph 18.4 mph N/A   Clear
8:55 PM 71.6 °F 52.2 °F 50% 29.90 in 10.0 mi South 9.2 mph 16.1 mph N/A   Clear
9:15 PM 70.9 °F 52.2 °F 51% 29.90 in 10.0 mi SSW 6.9 mph - N/A   Clear
9:35 PM 70.7 °F 52.2 °F 52% 29.90 in 10.0 mi SSW 9.2 mph - N/A   Clear
9:55 PM 70.0 °F 52.2 °F 53% 29.90 in 10.0 mi South 8.1 mph - N/A   Clear
10:15 PM 69.8 °F 52.2 °F 53% 29.90 in 10.0 mi South 6.9 mph - N/A   Clear
10:35 PM 69.4 °F 52.2 °F 54% 29.90 in 10.0 mi South 9.2 mph - N/A   Clear
10:55 PM 68.9 °F 52.0 °F 55% 29.90 in 10.0 mi South 9.2 mph - N/A   Clear
11:34 PM 68.2 °F 52.0 °F 56% 29.90 in 10.0 mi South 9.2 mph - N/A   Clear
11:55 PM 68.0 °F 51.8 °F 56% 29.89 in 10.0 mi South 9.2 mph - N/A   Clear